Weather History for Murray, KY

Change the Weather History Date:

Monday, January 23, 2012

  Actual Average (KPAH) Record (KPAH)
Temperature  
Mean Temperature 49 °F 35 °F  
Max Temperature 57 °F 44 °F 73 °F (1967)
Min Temperature 41 °F 26 °F -10 °F (1963)
Degree Days  
Heating Degree Days 16 30  
Month to date heating degree days 707  
Since 1 July heating degree days 2338  
Cooling Degree Days 0 0  
Month to date cooling degree days 0  
Year to date cooling degree days 0  
Moisture  
Dew Point 40 °F    
Average Humidity 71    
Maximum Humidity 82    
Minimum Humidity 58    
Precipitation  
Precipitation 0.03 in 0.11 in 0.92 in (2002)
Month to date precipitation 2.71  
Year to date precipitation 2.71  
Snow  
Snow 0.00 in 0.10 in 1.00 in (1977)
Month to date snowfall 2.1  
Since 1 July snowfall 4.4  
Snow Depth -    
Sea Level Pressure  
Sea Level Pressure 29.85 in    
Wind  
Wind Speed 15 mph (SW)    
Max Wind Speed 26 mph    
Max Gust Speed 36 mph    
Visibility 10 miles    
Events      
T = Trace of Precipitation, MM = Missing Value Source: NWS Daily Summary

Daily Weather History Graph

Daily Weather History Graph

Search for Another Location

Airport:

Trip Planner

Search our weather history database for the weather conditions in past years. The results will help you decide how hot, cold, wet, or windy it might be!

Date:

Astronomy

Jan. 23, 2012 Rise Set
Actual Time 7:01 AM CST 5:09 PM CST
Civil Twilight 6:34 AM CST 5:36 PM CST
Nautical Twilight 6:02 AM CST 6:08 PM CST
Astronomical Twilight 5:31 AM CST 6:39 PM CST
Moon 6:58 AM CST (1/23) 5:54 PM CST (1/23)
Length of Visible Light 11h 02m
Length of Day
10h 07m
New Moon, 0% of the Moon is Illuminated
Jan 23
New Moon
Jan 30
First Quarter
Feb 7
Full
Feb 14
Last Quarter
Feb 21
New

Hourly Weather History & Observations

Time (CST) Temp. Windchill Dew Point Humidity Pressure Visibility Wind Dir Wind Speed Gust Speed Precip Events Conditions
12:15 AM 55.4 °F - 50.0 °F 82% 29.64 in 5.0 mi SSW 18.4 mph 27.6 mph 0.03 in   Mostly Cloudy
12:35 AM 55.4 °F - 50.0 °F 82% 29.64 in 10.0 mi South 9.2 mph 16.1 mph 0.03 in   Mostly Cloudy
12:55 AM 55.4 °F - 50.0 °F 82% 29.64 in 10.0 mi South 11.5 mph 21.9 mph 0.03 in   Mostly Cloudy
1:15 AM 57.2 °F - 50.0 °F 77% 29.65 in 10.0 mi South 11.5 mph 20.7 mph N/A   Mostly Cloudy
1:35 AM 57.2 °F - 50.0 °F 77% 29.64 in 10.0 mi SSW 13.8 mph 24.2 mph N/A   Mostly Cloudy
1:55 AM 57.2 °F - 50.0 °F 77% 29.64 in 10.0 mi SSW 10.4 mph 16.1 mph N/A   Mostly Cloudy
2:15 AM 57.2 °F - 50.0 °F 77% 29.64 in 10.0 mi South 11.5 mph 18.4 mph N/A   Mostly Cloudy
2:35 AM 57.2 °F - 50.0 °F 77% 29.63 in 10.0 mi South 11.5 mph 20.7 mph N/A   Mostly Cloudy
3:15 AM 57.2 °F - 50.0 °F 77% 29.62 in 10.0 mi South 13.8 mph 19.6 mph N/A   Scattered Clouds
3:35 AM 57.2 °F - 50.0 °F 77% 29.63 in 10.0 mi South 13.8 mph 23.0 mph N/A   Scattered Clouds
3:55 AM 57.2 °F - 50.0 °F 77% 29.63 in 10.0 mi SSW 16.1 mph 26.5 mph N/A   Scattered Clouds
4:15 AM 57.2 °F - 50.0 °F 77% 29.64 in 10.0 mi SSW 19.6 mph 28.8 mph N/A   Mostly Cloudy
4:35 AM 57.2 °F - 50.0 °F 77% 29.65 in 10.0 mi SW 19.6 mph 33.4 mph N/A   Overcast
4:55 AM 57.2 °F - 50.0 °F 77% 29.66 in 10.0 mi SW 19.6 mph 32.2 mph N/A   Overcast
5:15 AM 55.4 °F - 48.2 °F 77% 29.67 in 10.0 mi SW 20.7 mph 31.1 mph N/A   Overcast
5:35 AM 55.4 °F - 46.4 °F 72% 29.69 in 10.0 mi WSW 24.2 mph 33.4 mph N/A   Scattered Clouds
5:55 AM 53.6 °F - 44.6 °F 72% 29.70 in 10.0 mi SW 24.2 mph 34.5 mph N/A   Partly Cloudy
6:15 AM 51.8 °F - 42.8 °F 71% 29.71 in 10.0 mi WSW 21.9 mph 33.4 mph N/A   Clear
6:35 AM 48.2 °F - 41.0 °F 76% 29.73 in 10.0 mi West 15.0 mph 25.3 mph N/A   Partly Cloudy
6:55 AM 48.2 °F - 37.4 °F 66% 29.75 in 10.0 mi WSW 17.3 mph 27.6 mph N/A   Clear
7:35 AM 46.4 °F 38.7 °F 37.4 °F 71% 29.79 in 10.0 mi WSW 20.7 mph 32.2 mph N/A   Clear
7:55 AM 46.4 °F 37.9 °F 35.6 °F 66% 29.81 in 10.0 mi WSW 25.3 mph 35.7 mph N/A   Clear
8:15 AM 46.4 °F 38.5 °F 35.6 °F 66% 29.83 in 10.0 mi WSW 21.9 mph 35.7 mph N/A   Clear
8:35 AM 44.6 °F 35.5 °F 35.6 °F 71% 29.85 in 10.0 mi WSW 25.3 mph 32.2 mph N/A   Partly Cloudy
8:55 AM 44.6 °F 35.9 °F 35.6 °F 71% 29.86 in 10.0 mi WSW 23.0 mph 32.2 mph N/A   Clear
9:15 AM 44.6 °F 35.3 °F 35.6 °F 71% 29.88 in 10.0 mi WSW 26.5 mph 32.2 mph N/A   Partly Cloudy
9:35 AM 44.6 °F 37.4 °F 35.6 °F 71% 29.89 in 10.0 mi WSW 16.1 mph 31.1 mph N/A   Partly Cloudy
9:55 AM 46.4 °F 39.0 °F 35.6 °F 66% 29.90 in 10.0 mi WSW 19.6 mph 27.6 mph N/A   Clear
10:15 AM 46.4 °F 38.5 °F 33.8 °F 62% 29.91 in 10.0 mi WSW 21.9 mph 31.1 mph N/A   Clear
10:55 AM 46.4 °F 39.5 °F 33.8 °F 62% 29.93 in 10.0 mi WSW 17.3 mph 28.8 mph N/A   Partly Cloudy
11:15 AM 46.4 °F 38.5 °F 35.6 °F 66% 29.93 in 10.0 mi SW 21.9 mph 25.3 mph N/A   Partly Cloudy
11:35 AM 46.4 °F 39.5 °F 33.8 °F 62% 29.93 in 10.0 mi WSW 17.3 mph 25.3 mph N/A   Scattered Clouds
11:55 AM 48.2 °F - 33.8 °F 58% 29.92 in 10.0 mi WSW 17.3 mph 23.0 mph N/A   Partly Cloudy
12:15 PM 48.2 °F - 33.8 °F 58% 29.92 in 10.0 mi WSW 16.1 mph 24.2 mph N/A   Partly Cloudy
12:35 PM 46.4 °F 39.0 °F 33.8 °F 62% 29.93 in 10.0 mi WSW 19.6 mph 25.3 mph N/A   Mostly Cloudy
12:55 PM 46.4 °F 39.5 °F 35.6 °F 66% 29.94 in 10.0 mi WSW 17.3 mph 23.0 mph N/A   Mostly Cloudy
1:15 PM 46.4 °F 39.8 °F 33.8 °F 62% 29.94 in 10.0 mi WSW 16.1 mph - N/A   Mostly Cloudy
1:35 PM 46.4 °F 40.4 °F 35.6 °F 66% 29.94 in 10.0 mi WSW 13.8 mph 18.4 mph N/A   Mostly Cloudy
1:55 PM 46.4 °F 40.7 °F 35.6 °F 66% 29.95 in 10.0 mi WSW 12.7 mph 21.9 mph N/A   Mostly Cloudy
2:15 PM 48.2 °F - 35.6 °F 62% 29.95 in 10.0 mi WSW 11.5 mph 17.3 mph N/A   Mostly Cloudy
2:35 PM 48.2 °F - 35.6 °F 62% 29.95 in 10.0 mi WSW 13.8 mph - N/A   Mostly Cloudy
2:55 PM 48.2 °F - 35.6 °F 62% 29.96 in 10.0 mi WSW 16.1 mph - N/A   Scattered Clouds
3:15 PM 48.2 °F - 35.6 °F 62% 29.96 in 10.0 mi WSW 11.5 mph - N/A   Partly Cloudy
3:35 PM 46.4 °F 41.9 °F 35.6 °F 66% 29.97 in 10.0 mi WSW 9.2 mph - N/A   Scattered Clouds
3:55 PM 46.4 °F 41.5 °F 37.4 °F 71% 29.97 in 10.0 mi SW 10.4 mph - N/A   Mostly Cloudy
4:15 PM 48.2 °F - 35.6 °F 62% 29.98 in 10.0 mi SW 15.0 mph - N/A   Mostly Cloudy
4:35 PM 46.4 °F 41.5 °F 35.6 °F 66% 29.99 in 10.0 mi SW 10.4 mph - N/A   Mostly Cloudy
4:55 PM 46.4 °F 41.9 °F 35.6 °F 66% 30.00 in 10.0 mi SW 9.2 mph - N/A   Overcast
5:15 PM 46.4 °F 41.9 °F 35.6 °F 66% 30.00 in 10.0 mi SW 9.2 mph - N/A   Scattered Clouds
5:35 PM 44.6 °F 40.2 °F 35.6 °F 71% 30.01 in 10.0 mi SW 8.1 mph - N/A   Clear
5:55 PM 44.6 °F 41.4 °F 35.6 °F 71% 30.01 in 10.0 mi SSW 5.8 mph - N/A   Clear
6:15 PM 42.8 °F 41.1 °F 35.6 °F 76% 30.01 in 10.0 mi South 3.5 mph - N/A   Clear
6:35 PM 41.0 °F 37.1 °F 35.6 °F 81% 30.02 in 10.0 mi South 5.8 mph - N/A   Clear
6:55 PM 41.0 °F 37.1 °F 35.6 °F 81% 30.02 in 10.0 mi South 5.8 mph - N/A   Clear
7:15 PM 41.0 °F 36.4 °F 35.6 °F 81% 30.03 in 10.0 mi South 6.9 mph - N/A   Clear
7:35 PM 41.0 °F 37.1 °F 35.6 °F 81% 30.03 in 10.0 mi South 5.8 mph - N/A   Clear
7:55 PM 41.0 °F 37.1 °F 35.6 °F 81% 30.03 in 10.0 mi South 5.8 mph - N/A   Clear
8:15 PM 41.0 °F 37.1 °F 35.6 °F 81% 30.04 in 10.0 mi SSW 5.8 mph - N/A   Clear
8:35 PM 41.0 °F 35.8 °F 35.6 °F 81% 30.05 in 10.0 mi SSW 8.1 mph - N/A   Clear
8:55 PM 41.0 °F 36.4 °F 35.6 °F 81% 30.05 in 10.0 mi SSW 6.9 mph - N/A   Clear
9:15 PM 41.0 °F 36.4 °F 35.6 °F 81% 30.05 in 10.0 mi SSW 6.9 mph - N/A   Clear
9:35 PM 41.0 °F 36.4 °F 35.6 °F 81% 30.06 in 10.0 mi South 6.9 mph - N/A   Clear
9:55 PM 41.0 °F 35.8 °F 35.6 °F 81% 30.06 in 10.0 mi SSW 8.1 mph - N/A   Clear
10:15 PM 41.0 °F 36.4 °F 35.6 °F 81% 30.05 in 10.0 mi SSW 6.9 mph - N/A   Clear
10:35 PM 41.0 °F 35.8 °F 35.6 °F 81% 30.06 in 10.0 mi SSW 8.1 mph - N/A   Clear
10:55 PM 41.0 °F 35.2 °F 35.6 °F 81% 30.06 in 10.0 mi SSW 9.2 mph - N/A   Clear
11:15 PM 41.0 °F 35.2 °F 35.6 °F 81% 30.07 in 10.0 mi SSW 9.2 mph - N/A   Clear
11:35 PM 41.0 °F 36.4 °F 35.6 °F 81% 30.07 in 10.0 mi SW 6.9 mph - N/A   Clear
11:55 PM 39.2 °F 33.0 °F 35.6 °F 87% 30.08 in 10.0 mi SW 9.2 mph - N/A   Clear